When you browse on this site, cookies collect data to enhance your experience and personalize the content and advertising you see.
Visit our Privacy Policy to learn more. By continuing to use the site, you agree to this use of cookies and data.
  • In Sweden
  • List of Countries
  • For 7 days
  • Water Temperature
  • Satellite Maps
  • Weather Map
  • Weather Widgets
  • user-avatar
    Login

    Hourly Weather Knyazevka

    Today, 19 May, Sunday

    Time Temperature Precipitation Wind Pressure Humidity
    00:00 +9°C° 0 mm 2 mps 738 mmHg 79%
    01:00 +9°C° 0 mm 2 mps 738 mmHg 79%
    02:00 +8°C° 0 mm 2 mps 738 mmHg 79%
    03:00 +8°C° 0 mm 1 mps 738 mmHg 78%
    04:00 +9°C° 0 mm 1 mps 738 mmHg 75%
    05:00 +9°C° 0 mm 2 mps 738 mmHg 73%
    06:00 +10°C° 0 mm 2 mps 738 mmHg 71%
    07:00 +11°C° 0 mm 3 mps 738 mmHg 67%
    08:00 +12°C° 0 mm 4 mps 738 mmHg 64%
    09:00 +14°C° 0 mm 4 mps 738 mmHg 60%
    10:00 +14°C° 0 mm 5 mps 738 mmHg 58%
    11:00 +15°C° 0 mm 5 mps 738 mmHg 57%
    12:00 +15°C° 0 mm 6 mps 738 mmHg 55%
    13:00 +15°C° 0 mm 6 mps 738 mmHg 53%
    14:00 +15°C° 0 mm 6 mps 738 mmHg 52%
    15:00 +15°C° 0 mm 6 mps 738 mmHg 50%
    16:00 +14°C° 0 mm 6 mps 739 mmHg 53%
    17:00 +13°C° 0 mm 5 mps 739 mmHg 56%
    18:00 +13°C° 0 mm 5 mps 739 mmHg 58%
    19:00 +11°C° 0 mm 4 mps 739 mmHg 62%
    20:00 +10°C° 0 mm 3 mps 740 mmHg 66%
    21:00 +8°C° 0 mm 2 mps 740 mmHg 69%
    22:00 +7°C° 0 mm 2 mps 740 mmHg 70%
    23:00 +7°C° 0 mm 2 mps 740 mmHg 71%

    Tomorrow, 20 May, Monday

    Time Temperature Precipitation Wind Pressure Humidity
    00:00 +7°C° 0 mm 1 mps 741 mmHg 73%
    01:00 +6°C° 0 mm 2 mps 741 mmHg 73%
    02:00 +5°C° 0 mm 2 mps 741 mmHg 73%
    03:00 +5°C° 0 mm 2 mps 742 mmHg 73%
    04:00 +5°C° 0 mm 2 mps 742 mmHg 73%
    05:00 +6°C° 0 mm 2 mps 742 mmHg 72%
    06:00 +7°C° 0 mm 2 mps 742 mmHg 71%
    07:00 +8°C° 0 mm 3 mps 743 mmHg 65%
    08:00 +10°C° 0 mm 3 mps 743 mmHg 58%
    09:00 +12°C° 0 mm 4 mps 743 mmHg 52%
    10:00 +12°C° 0 mm 4 mps 743 mmHg 51%
    11:00 +13°C° 0 mm 4 mps 743 mmHg 49%
    12:00 +14°C° 0 mm 4 mps 743 mmHg 48%
    13:00 +14°C° 0 mm 5 mps 743 mmHg 49%
    14:00 +14°C° 0 mm 5 mps 743 mmHg 49%
    15:00 +14°C° 0 mm 5 mps 743 mmHg 50%
    16:00 +14°C° 0 mm 4 mps 743 mmHg 53%
    17:00 +13°C° 0 mm 3 mps 742 mmHg 57%
    18:00 +13°C° 0 mm 3 mps 742 mmHg 60%
    19:00 +13°C° 0 mm 2 mps 743 mmHg 63%
    20:00 +10°C° 0 mm 2 mps 743 mmHg 65%
    21:00 +9°C° 0 mm 2 mps 743 mmHg 68%
    22:00 +9°C° 0 mm 1 mps 743 mmHg 69%
    23:00 +8°C° 0 mm 1 mps 743 mmHg 70%

    Day after tomorrow, 21 May, Tuesday

    Time Temperature Precipitation Wind Pressure Humidity
    00:00 +7°C° 0 mm 0 mps 744 mmHg 72%
    01:00 +8°C° 0 mm 1 mps 744 mmHg 72%
    02:00 +7°C° 0 mm 1 mps 744 mmHg 72%
    03:00 +6°C° 0 mm 2 mps 744 mmHg 72%
    04:00 +7°C° 0 mm 2 mps 744 mmHg 72%
    05:00 +8°C° 0 mm 2 mps 745 mmHg 73%
    06:00 +8°C° 0 mm 2 mps 745 mmHg 73%
    07:00 +10°C° 0 mm 2 mps 745 mmHg 65%
    08:00 +12°C° 0 mm 3 mps 745 mmHg 57%
    09:00 +13°C° 0 mm 3 mps 745 mmHg 49%
    10:00 +14°C° 0 mm 3 mps 745 mmHg 46%
    11:00 +16°C° 0 mm 3 mps 745 mmHg 44%
    12:00 +17°C° 0 mm 2 mps 745 mmHg 41%
    13:00 +17°C° 0 mm 3 mps 745 mmHg 41%
    14:00 +17°C° 0 mm 3 mps 745 mmHg 41%
    15:00 +18°C° 0 mm 3 mps 744 mmHg 41%
    16:00 +18°C° 0 mm 2 mps 744 mmHg 46%
    17:00 +17°C° 0 mm 2 mps 744 mmHg 50%
    18:00 +17°C° 0 mm 2 mps 743 mmHg 55%
    19:00 +15°C° 0 mm 1 mps 743 mmHg 57%
    20:00 +14°C° 0 mm 1 mps 743 mmHg 60%
    21:00 +12°C° 0 mm 1 mps 743 mmHg 62%
    22:00 +12°C° 0 mm 2 mps 743 mmHg 63%
    23:00 +12°C° 0 mm 2 mps 743 mmHg 64%

    22 May, Wednesday

    Time Temperature Precipitation Wind Pressure Humidity
    00:00 +10°C° 0 mm 3 mps 743 mmHg 64%
    01:00 +10°C° 0 mm 3 mps 742 mmHg 67%
    02:00 +10°C° 0 mm 3 mps 742 mmHg 69%
    03:00 +10°C° 0 mm 3 mps 742 mmHg 71%
    04:00 +11°C° 0 mm 4 mps 742 mmHg 74%
    05:00 +12°C° 0 mm 4 mps 742 mmHg 78%
    06:00 +12°C° 0 mm 4 mps 742 mmHg 81%
    07:00 +14°C° 0 mm 5 mps 742 mmHg 75%
    08:00 +16°C° 0 mm 5 mps 742 mmHg 70%
    09:00 +19°C° 0 mm 5 mps 741 mmHg 64%
    10:00 +20°C° 0 mm 5 mps 741 mmHg 61%
    11:00 +21°C° 0 mm 5 mps 741 mmHg 57%
    12:00 +22°C° 0 mm 5 mps 741 mmHg 54%
    13:00 +22°C° 0 mm 5 mps 741 mmHg 53%
    14:00 +22°C° 0 mm 5 mps 740 mmHg 53%
    15:00 +22°C° 0 mm 5 mps 740 mmHg 52%
    16:00 +22°C° 0 mm 5 mps 740 mmHg 56%
    17:00 +21°C° 0 mm 4 mps 739 mmHg 59%
    18:00 +21°C° 0 mm 3 mps 739 mmHg 63%
    19:00 +19°C° 0 mm 3 mps 739 mmHg 66%
    20:00 +17°C° 0 mm 3 mps 739 mmHg 70%
    21:00 +14°C° 0 mm 3 mps 739 mmHg 73%
    22:00 +14°C° 0 mm 3 mps 739 mmHg 75%
    23:00 +13°C° 0 mm 3 mps 738 mmHg 77%

    23 May, Thursday

    Time Temperature Precipitation Wind Pressure Humidity
    00:00 +13°C° 0 mm 3 mps 738 mmHg 79%
    01:00 +12°C° 0 mm 3 mps 738 mmHg 79%
    02:00 +12°C° 0 mm 3 mps 738 mmHg 80%
    03:00 +12°C° 0 mm 3 mps 737 mmHg 80%
    04:00 +12°C° 0 mm 3 mps 737 mmHg 78%
    05:00 +13°C° 0 mm 3 mps 737 mmHg 76%
    06:00 +13°C° 0 mm 3 mps 736 mmHg 75%
    07:00 +15°C° 0 mm 4 mps 736 mmHg 67%
    08:00 +17°C° 0 mm 5 mps 736 mmHg 60%
    09:00 +19°C° 0 mm 5 mps 736 mmHg 53%
    10:00 +20°C° 0 mm 5 mps 736 mmHg 51%
    11:00 +21°C° 0 mm 5 mps 735 mmHg 49%
    12:00 +22°C° 0 mm 5 mps 735 mmHg 47%
    13:00 +22°C° 0 mm 5 mps 734 mmHg 50%
    14:00 +23°C° 0 mm 5 mps 734 mmHg 53%
    15:00 +23°C° 0 mm 5 mps 734 mmHg 56%
    16:00 +22°C° 0.6 mm 5 mps 733 mmHg 62%
    17:00 +21°C° 0.6 mm 4 mps 733 mmHg 69%
    18:00 +20°C° 0.6 mm 3 mps 732 mmHg 75%
    19:00 +19°C° 0.2 mm 3 mps 732 mmHg 80%
    20:00 +18°C° 0.2 mm 3 mps 732 mmHg 85%
    21:00 +16°C° 0.2 mm 2 mps 732 mmHg 90%
    22:00 +16°C° 1.1 mm 2 mps 731 mmHg 91%
    23:00 +16°C° 1.1 mm 2 mps 731 mmHg 93%

    24 May, Friday

    Time Temperature Precipitation Wind Pressure Humidity
    00:00 +15°C° 1.1 mm 2 mps 731 mmHg 94%
    01:00 +15°C° 0.2 mm 2 mps 731 mmHg 94%
    02:00 +15°C° 0.2 mm 2 mps 730 mmHg 94%
    03:00 +14°C° 0.2 mm 2 mps 730 mmHg 94%
    04:00 +15°C° 0.1 mm 2 mps 730 mmHg 92%
    05:00 +15°C° 0.1 mm 2 mps 730 mmHg 91%
    06:00 +16°C° 0.1 mm 2 mps 730 mmHg 89%
    07:00 +17°C° 0 mm 3 mps 730 mmHg 83%
    08:00 +19°C° 0 mm 3 mps 730 mmHg 77%
    09:00 +20°C° 0 mm 3 mps 730 mmHg 72%
    10:00 +21°C° 0.1 mm 3 mps 730 mmHg 67%
    11:00 +22°C° 0.1 mm 3 mps 730 mmHg 62%
    12:00 +24°C° 0.1 mm 3 mps 730 mmHg 57%
    13:00 +24°C° 0.7 mm 3 mps 730 mmHg 57%
    14:00 +24°C° 0.7 mm 3 mps 730 mmHg 58%
    15:00 +24°C° 0.7 mm 3 mps 730 mmHg 59%
    16:00 +22°C° 1 mm 3 mps 730 mmHg 65%
    17:00 +21°C° 1 mm 3 mps 730 mmHg 72%
    18:00 +20°C° 1 mm 3 mps 730 mmHg 78%
    19:00 +18°C° 0.1 mm 3 mps 731 mmHg 83%
    20:00 +15°C° 0.1 mm 4 mps 731 mmHg 89%
    21:00 +13°C° 0.1 mm 5 mps 731 mmHg 94%
    22:00 +13°C° 0 mm 5 mps 732 mmHg 92%
    23:00 +12°C° 0 mm 5 mps 732 mmHg 91%
    Show more